Погода в Алтыэйлюле

Турция     39°33′19″N   27°52′05″E
темп.,
°C
ветер,
м/с
пор.,
м/с
влажн.,
%
обл.,
%
осадки,
мм/ч
давл.,
гПа
погр.,
м
23 апреля, пт
пт2300:00+12з1153100 0.0 102110
03:00+10ю0158100 0.0 102010
06:00+9ююв116095 0.0 102010
09:00+15ююз125130 0.0 1020268
12:00+19юз453511 0.0 10201240
15:00+21з5639100 0.0 10191804
18:00+20ссз2248100 0.0 1019795
21:00+15ссв1170100 0.0 102012
24 апреля, сб
сб2400:00+13ссв2276100 0.0 102135
03:00+11ссв2286100 0.0 102052
06:00+10ссв2285100 0.0 101920
09:00+13ссв3577100 0.0 1019431
12:00+17ссв5668100 0.0 1018871
15:00+13с5681100 0.0 1018596
18:00+12с4687100 0.0 1018567
21:00+10ссв3894100 1.0 1017462
25 апреля, вс
вс2500:00+10ссз1395100 1.5 1017330
03:00+9с2596100 3.9 1016404
06:00+9с3697100 0.0 1015461
09:00+9ссв3696100 0.6 1015503
12:00+10с4694100 0.1 1015582
15:00+9с6893100 0.6 1014605
18:00+9ссв51095100 0.1 1014848
21:00+8с61095100 0.1 1015722
26 апреля, пн
пн2600:00+8ссв61195100 0.0 1016764
03:00+8ссв61194100 0.0 1016858
06:00+8ссв61191100 0.0 1016990
09:00+8с71190100 0.1 10181039
12:00+10ссв71181100 0.1 10181054
15:00+12ссв8107198 0.2 10171085
18:00+13ссв78610 0.0 10161072
21:00+7с33750 0.0 101745
27 апреля, вт
вт2700:00+5ссз117948 0.0 101811
03:00+4ссв1184100 0.0 101711
06:00+4с11860 0.0 101611
09:00+10всв11695 0.0 1016216
12:00+17ссв11480 0.0 1015591
15:00+22сз22325 0.0 10131068
18:00+22вюв1239100 0.0 1012472
21:00+16ююз1148100 0.0 101311